Regional Weather Roundup
Issued by NWS

Home | Current Version | Previous Version | Text Only | Print | Product List | Glossary On
Versions: 1 2 3 4 5 6 7 8 9 10 11 12 13 14 15 16 17 18 19 20 21 22 23 24 25 26 27 28
000
ASUS46 KSEW 272110
RWRWA

WASHINGTON REGIONAL WEATHER ROUNDUP
NATIONAL WEATHER SERVICE SEATTLE WA
200 PM PDT FRI MAY 27 2016

NOTE:"FAIR" INDICATES FEW OR NO CLOUDS BELOW 12,000 FEET WITH NO
SIGNIFICANT WEATHER AND/OR OBSTRUCTIONS TO VISIBILITY.

WAZ505-507>509-272200-
SEATTLE, TACOMA, EVERETT, AND VICINITY

CITY           SKY/WX    TMP DP  RH WIND       PRES   REMARKS
EVERETT        PTSUNNY   57  41  55 W7        30.15S
BOEING FIELD   PTSUNNY   63  39  41 S9        30.14S
RENTON         CLOUDY    63  38  39 SW8       30.14S
SEATAC AIRPORT PTSUNNY   60  38  43 W9        30.15F
JBLM-MCCHORD   PTSUNNY   61  39  43 SW12      30.14F
PUYALLUP       CLOUDY    59  43  55 VRB6G12   30.15S
BREMERTON      PTSUNNY   61  39  44 SW8       30.14F
JBLM-FT LEWIS  CLOUDY    60  40  48 S6        30.14S
TACOMA NARROWS PTSUNNY   60  39  45 S7        30.15S
$$

WAZ001-503-506-510-514-515-272200-
NORTH INTERIOR

CITY           SKY/WX    TMP DP  RH WIND       PRES   REMARKS
BELLINGHAM     CLOUDY    57  45  64 SE15      30.12F
FRIDAY HARBOR  MOSUNNY   59  43  55 SW8G23    30.12F
EASTSOUND      MOSUNNY   57  48  72 NE7       30.10S
PORT ANGELES   MOSUNNY   58  45  62 NW14G22   30.13S
EDIZ HOOK      MOCLDY    56  46  69 NW16      30.14S
PORT TOWNSEND  CLOUDY    54  48  82 CALM      30.16F
NAS WHIDBEY    CLOUDY    59  45  59 SW16      30.18F
ARLINGTON      MOSUNNY   55  43  62 SW5       30.17S
BURLINGTON     PTSUNNY   59  41  51 SW8G16    30.14F
$$

WAZ020-022-039-040-504-511-512-272200-
SOUTHWEST INTERIOR

CITY           SKY/WX    TMP DP  RH WIND       PRES   REMARKS
SHELTON        MOSUNNY   63  39  41 SW20G25   30.11F
OLYMPIA        MOSUNNY   61  37  41 VRB7G16   30.14F
CHEHALIS       PTSUNNY   57  50  77 VRB5      30.18S
KELSO          CLOUDY    59  43  55 W8        30.22F
VANCOUVER      LGT RAIN  57  47  69 CALM      30.19F
SCAPPOOSE, OR  HVY RAIN  55  46  71 CALM      30.20R
PORTLAND, OR   LGT RAIN  57  47  69 N5        30.20S
$$

WAZ021-516-517-272200-
WASHINGTON COAST

CITY           SKY/WX    TMP DP  RH WIND       PRES   REMARKS
FORKS          CLOUDY    57  45  64 SW10      30.17S
HOQUIAM        CLOUDY    56  46  69 W12       30.20S HAZE
ASTORIA, OR    CLOUDY    57  49  74 NW8       30.22S
$$

WAZ019-023-024-040-518-519-272200-
CASCADE MOUNTAINS AND COLUMBIA GORGE

CITY           SKY/WX    TMP DP  RH WIND       PRES   REMARKS
STAMPEDE PASS  LGT RAIN  38  34  85 VRB7      30.10R FOG
TROUTDALE, OR  CLOUDY    60  48  64 E5        30.19F
THE DALLES, OR SUNNY     66  37  34 NW22G40   30.08F
$$

WAZ026-027-041>044-520-521-272200-
EAST SLOPES

CITY           SKY/WX    TMP DP  RH WIND       PRES   REMARKS
OMAK           MOSUNNY   65  31  28 VRB3      29.96S
WENATCHEE      SUNNY     66  25  21 NW18G25   29.98S
ELLENSBURG     SUNNY     61  35  37 NW24G36   30.03F
YAKIMA         PTSUNNY   67  30  25 CALM      30.02S
$$

WAZ028-034-035-272200-
COLUMBIA BASIN

CITY           SKY/WX    TMP DP  RH WIND       PRES   REMARKS
EPHRATA        PTSUNNY   67  29  24 W16       29.97F
MOSES LAKE     SUNNY     67  28  23 SW10G21   29.99F
PASCO          MOSUNNY   69  29  22 SW16      30.03F
HERMISTON, OR    N/A     66  34  30 W17G23    30.03F
$$

WAZ036>038-272200-
NORTHEAST WASHINGTON

CITY           SKY/WX    TMP DP  RH WIND       PRES   REMARKS
SPOKANE GEIGER PTSUNNY   58  31  35 SW21G28   29.99S
SPOKANE FELTS  PTSUNNY   62  35  36 SW18G28   30.00S
FAIRCHILD AFB  PTSUNNY   58  31  35 SW16G28   29.99S
COEURDALENE,ID MOSUNNY   55  39  54 S6        29.98F
DEER PARK      CLOUDY    59  32  36 SW20G28   29.98F
$$

WAZ029>033-272200-
SOUTHEAST WASHINGTON

CITY           SKY/WX    TMP DP  RH WIND       PRES   REMARKS
PULLMAN        MOSUNNY   58  33  39 W10G20    30.05S
LEWISTON, ID   CLOUDY    63  34  33 W9        30.02S
WALLA WALLA    MOSUNNY   62  34  35 SW17G23   30.04F
PENDLETON, OR  PTSUNNY   62  29  28 SW20G25   30.05F
$$




USA.gov is the U.S. government's official web portal to all federal, state and local government web resources and services.